Regional Weather Roundup
Issued by NWS Goodland, KS

Home | Current Version | Previous Version | Text Only | Print | Product List | Glossary Off
Versions: 1 2 3 4 5 6 7 8 9 10 11 12 13 14 15 16 17 18 19 20 21 22 23 24 25 26 27 28 29 30 31 32 33 34 35 36 37 38 39 40 41 42 43 44 45 46 47 48 49 50

000
ASUS43 KGLD 030259
RWRGLD

GOODLAND FORECAST AREA HOURLY WEATHER ROUNDUP
NATIONAL WEATHER SERVICE GOODLAND KS
900 PM MDT SAT MAY 02 2015

...OFFICIAL OBSERVATIONS...

CITY           SKY/WX    TMP DP  RH WIND       PRES   REMARKS
GOODLAND KS    CLOUDY    70  46  42 W18       29.85R
HILL CITY KS   CLOUDY    69  51  52 S8        29.76R
IMPERIAL NEB   CLOUDY    71  38  29 W15G23    29.81R
MCCOOK NEB     CLOUDY    70  47  43 S6        29.76R
AKRON CO       CLOUDY    56  44  64 VRB5      29.94F
BURLINGTON CO  CLOUDY    69  38  32 W14G22    29.92R
LIMON CO       CLOUDY    57  42  57 VRB6      29.99R
$$

...UNOFFICIAL OBSERVATIONS...

CITY           SKY/WX    TMP DP  RH WIND       PRES   REMARKS
COLBY KS       CLEAR     66  54  63 S6        29.82R
GOVE KS          N/A     66  32  28 MISG        N/A
LENORA KS        N/A     74  32  21 MISG        N/A
NORTON KS      CLEAR     68  43  40 S7        29.74R
SHARON SPRINGS   N/A     68  46  45 MISG        N/A
KIT CARSON CO    N/A     60  47  63 MISG        N/A
YUMA CO          N/A     62  46  56 N12         N/A
$$


USA.gov is the U.S. government's official web portal to all federal, state and local government web resources and services.